Theta_e
356 353 353 353 352 352 351 350 352 351 352 353 354 354 353 354 358 358 358 360 359 357 357 358 360 359 360 360 360 360 363 359 358 360 358 358 352 352 353 352 350 348
358 356 357 354 355 357 354 353 354 352 353 353 354 354 354 355 356 356 356 358 359 358 357 358 359 359 359 359 359 359 357 360 357 366 358 357 352 351 352 354 351 350
358 358 355 353 354 356 355 356 356 354 353 354 355 354 355 356 355 355 356 357 356 357 358 358 358 359 358 358 358 357 357 357 358 358 357 355 353 353 354 353 351 351
357 359 356 355 356 358 355 355 356 355 354 354 355 355 356 357 355 355 355 362 356 356 358 358 358 359 358 358 355 356 357 357 358 357 357 359 362 357 356 354 356 354
356 358 357 357 357 358 356 354 356 355 354 355 355 355 356 356 354 354 354 356 355 355 356 358 356 356 358 356 355 353 355 358 356 358 357 356 357 358 357 354 352 353
356 357 358 357 356 355 355 354 355 356 355 355 356 357 356 355 354 355 355 355 353 356 356 357 357 356 356 355 356 355 355 359 357 356 354 353 354 356 359 357 353 353
355 355 356 356 355 354 354 354 354 357 354 354 356 356 355 354 354 355 356 355 353 356 355 356 356 356 355 354 356 354 354 356 356 355 354 352 354 353 354 355 356 354
356 356 355 355 354 354 353 354 353 354 354 353 353 354 355 355 353 353 356 354 354 354 354 355 356 355 356 355 356 353 353 357 357 356 354 353 354 352 355 359 356 353
357 356 355 354 354 353 353 353 353 353 354 352 352 353 355 355 354 353 355 353 352 351 351 351 354 354 355 354 355 354 352 353 356 356 357 357 356 355 354 354 354 354
356 356 356 355 353 353 353 353 352 353 354 352 352 353 353 356 355 354 354 353 351 351 350 350 352 354 354 355 354 354 354 353 352 354 356 358 358 357 357 354 352 350
354 355 355 355 354 353 353 353 352 352 353 352 352 352 353 355 355 354 353 353 352 351 350 351 353 354 355 355 355 355 355 355 354 354 356 358 359 357 363 356 354 353
352 354 354 354 354 352 352 352 352 353 353 354 353 352 351 354 355 354 354 353 353 353 352 355 356 355 355 356 357 357 357 357 357 356 356 356 357 358 359 360 357 356
351 351 353 353 354 352 353 352 352 353 353 352 353 352 352 353 354 353 356 355 353 356 357 358 357 358 357 356 356 357 359 358 357 357 357 358 357 358 357 356 355 354
350 350 351 352 352 351 350 352 352 352 352 352 353 351 352 353 353 352 356 356 354 357 358 360 359 358 358 358 357 356 357 356 355 355 355 356 355 354 354 353 353 353
349 349 349 350 352 351 348 349 351 352 352 352 353 352 352 352 352 353 353 355 355 356 357 359 359 359 359 359 357 356 357 356 355 355 355 354 354 354 354 354 354 354
348 349 348 346 347 348 348 346 347 350 350 349 351 351 351 351 350 352 353 354 354 355 356 359 360 361 366 368 367 359 358 358 357 355 354 354 354 353 354 354 354 354
347 347 347 347 348 348 347 345 345 348 349 349 350 350 350 351 350 349 352 354 355 355 354 356 355 347 340 335 343 351 363 357 357 355 354 354 354 352 351 352 353 355
346 346 345 346 347 348 349 351 346 346 347 348 348 349 349 350 349 348 348 351 354 354 352 345 341 337 330 334 337 340 351 358 358 358 356 353 353 352 351 352 352 350
345 345 344 344 345 346 345 349 350 347 346 347 347 348 349 348 348 348 348 348 348 345 343 340 336 329 328 331 332 332 338 355 352 350 348 350 351 349 349 349 351 349
345 344 344 344 344 343 343 346 349 348 348 348 347 345 344 345 346 346 346 345 344 343 339 336 332 327 324 326 328 330 334 345 351 348 346 351 354 354 355 352 349 346
345 344 344 344 344 344 343 345 346 347 348 346 345 344 345 346 346 345 344 344 342 339 336 332 329 320 320 323 324 327 330 347 351 350 355 354 352 351 350 349 344 341
344 343 344 345 345 344 343 344 344 346 346 346 346 344 345 347 347 346 342 338 337 335 332 327 323 317 317 319 320 324 330 351 350 353 351 348 347 345 345 344 341 337
344 344 343 343 344 344 343 344 346 347 348 347 344 343 343 344 344 342 339 336 336 332 329 325 324 318 314 314 316 320 330 350 352 350 347 346 344 344 343 342 340 338
345 344 343 343 344 345 345 346 348 350 348 349 344 343 342 341 338 335 335 335 332 329 328 325 324 321 312 311 313 318 335 353 351 348 345 344 343 343 344 344 345 348
343 344 343 342 340 342 344 347 348 347 347 346 343 342 340 338 337 332 331 331 331 331 334 325 324 323 313 310 311 314 331 353 351 348 345 342 340 338 338 338 339 343
342 344 345 344 341 342 343 344 346 346 344 341 341 339 337 336 333 330 326 326 327 326 326 325 322 321 318 310 309 311 321 350 351 348 344 341 338 335 334 334 334 333
Wind_Speed
6 6 6 6 6 6 6 6 6 6 6 5 6 6 6 5 4 5 5 4 5 4 4 4 4 3 4 3 3 2 1 2 2 3 2 2 3 2 4 5 5 3
6 7 6 6 5 4 5 6 6 6 6 5 5 5 5 5 5 5 5 5 4 5 4 4 3 3 4 3 3 3 2 2 3 2 3 3 3 2 4 3 3 3
6 6 8 7 7 7 7 5 5 5 5 6 5 5 5 5 5 5 5 5 5 5 4 4 4 3 3 3 3 3 3 3 3 3 1 3 3 3 3 2 3 4
7 7 8 8 7 7 7 6 5 5 5 5 6 6 6 5 5 5 5 6 5 4 4 4 4 4 3 3 3 3 2 3 3 3 3 3 3 2 3 3 3 4
8 7 7 6 6 6 6 7 7 7 7 6 6 6 6 5 5 6 6 6 5 5 4 4 4 4 3 3 3 3 3 4 3 3 3 3 3 1 2 2 4 4
6 6 6 6 6 6 6 7 7 7 7 6 7 6 6 6 6 6 6 6 5 5 6 5 4 4 3 3 3 4 4 4 3 3 3 3 3 2 1 2 2 3
8 7 7 6 6 6 7 7 7 6 6 6 5 7 7 6 6 6 7 7 6 5 6 5 5 5 4 3 4 4 4 3 3 3 4 3 3 3 2 2 2 2
8 7 7 6 7 7 7 7 7 6 6 5 6 6 6 6 6 5 5 7 6 6 6 6 6 6 5 4 4 5 4 4 3 2 3 4 3 4 3 2 1 2
8 8 7 7 8 7 8 8 7 7 6 7 6 5 5 6 6 6 6 6 5 5 6 6 6 6 5 5 5 5 6 4 4 3 3 3 3 4 4 3 2 2
8 8 8 8 8 7 8 7 7 7 6 7 7 6 6 6 7 7 6 6 6 6 5 5 6 6 6 6 7 6 6 5 4 3 3 3 4 4 4 4 4 4
9 9 9 8 8 7 9 8 8 8 6 7 7 7 7 7 6 5 6 6 7 7 6 6 6 7 6 6 6 6 6 6 5 4 4 4 5 5 5 4 4 4
10 9 10 10 8 7 9 8 8 7 6 5 7 7 7 7 7 6 6 8 8 7 6 6 6 7 7 6 6 6 6 6 6 5 5 4 4 5 5 4 4 4
10 10 10 10 9 7 7 6 7 7 7 6 5 7 8 7 7 7 6 7 8 7 7 7 6 6 6 5 4 4 6 6 6 5 4 4 4 4 4 3 3 3
10 10 10 9 8 6 6 7 7 8 8 7 6 7 7 8 8 8 7 6 7 7 7 6 6 5 5 5 4 4 5 5 5 5 4 4 4 3 3 4 4 4
11 9 8 8 8 8 7 6 8 8 8 6 7 7 8 8 8 8 7 7 6 7 6 5 6 6 5 5 5 5 5 5 5 4 4 3 3 3 4 4 4 3
10 9 8 8 8 9 9 7 7 9 10 9 10 7 6 6 6 7 8 8 7 6 5 6 6 5 4 8 8 6 5 4 4 4 3 3 3 4 4 4 4 4
8 8 7 8 8 8 8 6 7 7 8 9 9 8 8 7 7 7 7 7 8 6 5 4 2 2 2 3 2 0 3 4 4 3 3 3 4 4 6 4 2 2
8 8 8 7 6 6 6 6 6 6 7 7 7 8 7 6 7 7 6 7 6 8 7 4 4 2 3 3 2 2 1 2 3 3 0 3 4 4 3 3 3 2
9 9 9 8 6 4 3 4 5 6 7 6 7 5 4 5 5 4 4 4 6 7 7 4 3 2 2 3 3 3 3 2 3 4 5 5 8 5 2 2 3 3
6 6 7 7 6 5 4 4 4 3 3 3 4 4 5 4 4 5 5 5 6 7 6 4 4 1 1 2 3 4 5 4 4 5 3 2 2 2 2 3 3 4
5 5 6 5 5 6 5 4 4 4 4 3 4 6 7 7 6 6 4 4 5 6 7 4 2 3 2 3 3 4 4 4 4 2 4 3 2 2 3 4 3 4
2 3 4 5 5 6 6 5 3 3 5 3 3 2 3 5 4 4 5 5 4 5 6 5 2 4 4 4 5 5 4 4 7 6 6 5 4 4 4 4 4 4
1 1 2 1 1 4 6 6 5 4 5 3 4 3 3 4 5 4 4 5 4 3 4 4 3 5 6 6 6 7 4 4 5 6 6 5 4 4 4 4 4 4
3 1 2 2 4 4 5 4 4 4 5 5 6 6 5 5 5 6 6 5 5 5 3 4 3 5 8 7 7 7 7 4 6 6 6 6 5 4 3 3 4 8
1 2 2 3 7 5 3 7 9 9 8 7 6 6 6 5 6 7 6 6 5 5 7 6 3 4 9 8 7 7 6 4 6 7 7 6 6 5 4 4 4 5
3 2 1 4 9 8 7 6 4 4 4 5 5 6 7 6 7 7 8 6 5 5 5 4 5 5 7 9 7 6 6 4 5 7 8 7 6 7 6 4 3 3
Wind_Direction
171 168 176 178 181 180 180 181 194 194 194 187 189 201 203 208 203 201 206 204 212 208 214 219 216 220 221 209 215 212 219 217 263 275 278 296 310 349 331 337 337 344
174 171 174 176 178 186 184 184 189 193 197 199 201 200 208 200 207 202 205 204 207 215 212 213 216 214 210 197 207 194 208 217 241 252 250 281 274 334 311 324 331 333
172 170 174 176 183 186 187 193 194 198 195 206 209 202 207 205 204 204 207 200 203 210 211 206 209 212 196 200 201 205 197 216 246 269 254 255 265 290 293 322 331 316
182 178 179 181 179 182 184 185 195 203 204 202 209 208 205 205 201 206 207 206 200 206 207 202 200 204 189 200 200 218 218 217 240 257 262 267 269 280 298 330 343 328
187 185 184 183 182 178 178 185 190 194 202 209 212 211 207 205 201 204 205 207 195 205 200 204 205 207 202 206 201 217 224 234 243 224 206 229 264 280 289 347 323 305
192 193 185 185 184 177 183 190 195 194 199 200 212 210 212 202 194 199 199 200 193 198 200 204 204 215 203 208 201 218 218 225 247 212 212 226 250 276 295 343 340 331
194 195 193 188 186 185 186 191 195 200 202 201 195 204 200 194 188 185 188 192 188 196 197 199 204 212 212 194 202 220 227 227 242 215 217 238 244 273 297 312 306 297
196 197 197 189 192 193 195 191 196 198 203 199 196 203 187 188 192 189 183 184 183 194 197 201 203 210 212 191 202 211 230 219 240 216 212 224 215 246 278 277 248 297
191 196 198 198 197 194 198 197 198 202 196 200 204 204 199 188 192 193 189 193 196 190 193 199 207 205 206 197 204 207 215 226 224 210 200 207 208 230 247 260 274 260
191 194 196 201 204 199 198 199 201 204 197 199 201 199 196 199 190 190 188 195 205 207 201 205 208 208 201 200 201 204 207 222 226 218 220 221 219 230 245 245 243 253
193 193 198 199 206 202 202 199 200 202 195 202 198 199 196 193 194 186 189 197 207 211 211 211 211 208 203 203 205 201 206 214 217 211 215 219 221 225 231 234 241 232
193 195 199 202 202 200 200 197 198 195 191 194 190 194 197 196 197 193 189 201 208 212 209 208 208 206 198 195 196 200 205 212 215 209 211 216 221 220 227 221 227 232
193 194 196 199 200 201 197 185 181 189 197 205 188 180 185 196 205 200 198 196 204 200 196 194 196 195 196 205 202 195 201 209 212 213 209 207 206 208 208 207 219 229
192 192 193 194 198 198 201 194 186 188 194 197 187 181 188 185 194 198 199 195 194 193 190 185 186 193 200 206 213 207 201 211 207 201 201 202 201 204 209 223 227 225
189 188 187 189 195 202 205 200 191 190 197 176 203 195 192 191 188 189 188 195 192 192 192 188 188 196 197 202 215 214 195 201 203 198 191 195 212 228 233 231 237 242
184 182 181 181 190 201 204 199 196 188 179 188 211 199 197 202 186 186 185 189 189 191 189 190 197 194 193 206 201 197 193 190 190 200 201 201 214 235 246 241 241 246
175 181 177 178 189 198 203 195 198 198 193 192 198 201 193 197 191 188 191 187 189 186 187 177 141 81 69 70 72 283 191 182 183 204 210 207 215 215 234 256 297 265
164 168 171 175 165 173 178 187 190 201 200 195 198 197 201 196 196 195 194 192 177 173 181 156 157 114 111 111 123 137 156 178 186 186 138 322 274 245 256 249 234 166
163 165 167 172 167 140 142 152 178 194 202 201 197 188 166 187 200 183 166 151 140 150 156 148 145 127 134 143 151 149 173 163 102 104 136 211 256 248 232 182 130 107
160 161 162 158 140 132 112 105 115 137 156 154 143 146 161 166 160 156 153 154 155 152 147 143 146 147 206 207 193 179 173 154 136 146 150 188 188 145 140 118 117 121
138 140 148 147 141 126 105 93 100 107 98 108 150 162 157 157 151 148 154 151 146 145 146 137 116 25 291 255 235 215 189 151 114 199 147 126 111 99 99 105 102 104
119 146 163 161 150 129 114 105 99 108 111 107 97 82 94 113 98 105 121 124 128 136 132 119 80 22 352 320 286 252 215 173 157 156 140 132 118 109 105 106 111 109
44 344 314 329 78 106 117 133 144 137 111 115 112 115 108 92 102 89 89 97 93 86 102 95 73 14 1 341 314 286 250 187 145 139 134 127 118 113 110 110 108 120
66 60 20 16 38 72 109 131 144 152 144 156 149 144 123 120 111 93 68 67 75 79 81 92 82 25 17 356 337 302 267 192 152 141 136 129 119 94 94 103 124 118
342 234 164 121 101 94 136 164 177 162 174 166 146 132 128 125 112 103 93 72 70 80 86 90 84 33 23 14 2 338 295 204 159 149 143 142 134 115 84 78 70 90
56 6 222 164 137 157 194 209 200 152 117 100 118 131 130 126 119 114 114 109 102 97 80 76 79 52 31 33 28 20 334 242 175 155 153 147 142 137 128 120 119 110